Powrót do katalogu

STARLINK-35098

AktywnyŁącznośćVLEO
NORAD 65476·PAYLOAD·🇺🇸 United States

Wystrzelony Sep 3, 2025 z Cape Canaveral Space Force Station

Loading…

Następne Przeloty (najbliższe 24 godziny)

TLE

ŚwieżeSource: CelesTrak SupGP

Epoka: Sep 15, 2026, 02:52 UTC

1 65476C 25195U   26258.11993056 -.00006773  00000+0 -21769-3 0  2587
2 65476  53.1576  96.3912 0001272  86.7558 255.6601 15.31720119    14

Śledź STARLINK-35098 w czasie rzeczywistym z AllMySat

Download on the App Store